Data supplied by UK-AIR on 5/4/2008
All Data GMT hour ending 
Status: R =Ratified P=Provisional,P*=As supplied
,,West London,,,,,,,,,,,,,,,,,,,,,,,
Date,time,"Carbon monoxide",status,unit,"Nitric oxide",status,unit,"Nitrogen dioxide",status,unit,"Nitrogen oxides as nitrogen dioxide",status,unit
 
01-01-1992,01:00,0.6,R,mgm-3,,,,,,,,,
01-01-1992,02:00,0.6,R,mgm-3,15,R,ugm-3,31,R,ugm-3,53,R,ugm-3
01-01-1992,03:00,0.6,R,mgm-3,15,R,ugm-3,31,R,ugm-3,53,R,ugm-3
01-01-1992,04:00,0.6,R,mgm-3,15,R,ugm-3,29,R,ugm-3,52,R,ugm-3
01-01-1992,05:00,0.5,R,mgm-3,13,R,ugm-3,29,R,ugm-3,48,R,ugm-3
01-01-1992,06:00,0.3,R,mgm-3,8,R,ugm-3,21,R,ugm-3,32,R,ugm-3
01-01-1992,07:00,0.3,R,mgm-3,11,R,ugm-3,27,R,ugm-3,44,R,ugm-3
01-01-1992,08:00,0.3,R,mgm-3,11,R,ugm-3,31,R,ugm-3,48,R,ugm-3
01-01-1992,09:00,0.2,R,mgm-3,9,R,ugm-3,27,R,ugm-3,40,R,ugm-3
01-01-1992,10:00,0.3,R,mgm-3,14,R,ugm-3,27,R,ugm-3,48,R,ugm-3
01-01-1992,11:00,0.5,R,mgm-3,15,R,ugm-3,32,R,ugm-3,55,R,ugm-3
01-01-1992,12:00,0.5,R,mgm-3,19,R,ugm-3,32,R,ugm-3,61,R,ugm-3
01-01-1992,13:00,0.5,R,mgm-3,14,R,ugm-3,34,R,ugm-3,55,R,ugm-3
01-01-1992,14:00,0.6,R,mgm-3,19,R,ugm-3,38,R,ugm-3,67,R,ugm-3
01-01-1992,15:00,0.7,R,mgm-3,23,R,ugm-3,46,R,ugm-3,80,R,ugm-3
01-01-1992,16:00,0.9,R,mgm-3,36,R,ugm-3,55,R,ugm-3,111,R,ugm-3
01-01-1992,17:00,0.9,R,mgm-3,36,R,ugm-3,53,R,ugm-3,109,R,ugm-3
01-01-1992,18:00,1.0,R,mgm-3,36,R,ugm-3,52,R,ugm-3,107,R,ugm-3
01-01-1992,19:00,1.0,R,mgm-3,40,R,ugm-3,53,R,ugm-3,115,R,ugm-3
01-01-1992,20:00,0.8,R,mgm-3,28,R,ugm-3,50,R,ugm-3,92,R,ugm-3
01-01-1992,21:00,0.7,R,mgm-3,23,R,ugm-3,46,R,ugm-3,80,R,ugm-3
01-01-1992,22:00,0.6,R,mgm-3,18,R,ugm-3,40,R,ugm-3,67,R,ugm-3
01-01-1992,23:00,0.5,R,mgm-3,14,R,ugm-3,36,R,ugm-3,57,R,ugm-3
01-01-1992,24:00,0.5,R,mgm-3,14,R,ugm-3,31,R,ugm-3,52,R,ugm-3
02-01-1992,01:00,0.2,R,mgm-3,6,R,ugm-3,21,R,ugm-3,31,R,ugm-3
02-01-1992,02:00,0.2,R,mgm-3,6,R,ugm-3,15,R,ugm-3,25,R,ugm-3
02-01-1992,03:00,0.1,R,mgm-3,5,R,ugm-3,11,R,ugm-3,19,R,ugm-3
02-01-1992,04:00,0.1,R,mgm-3,4,R,ugm-3,11,R,ugm-3,17,R,ugm-3
02-01-1992,05:00,0.1,R,mgm-3,5,R,ugm-3,10,R,ugm-3,17,R,ugm-3
02-01-1992,06:00,0.2,R,mgm-3,6,R,ugm-3,15,R,ugm-3,25,R,ugm-3
02-01-1992,07:00,0.2,R,mgm-3,9,R,ugm-3,23,R,ugm-3,36,R,ugm-3
02-01-1992,08:00,0.6,R,mgm-3,20,R,ugm-3,40,R,ugm-3,71,R,ugm-3
02-01-1992,09:00,0.8,R,mgm-3,31,R,ugm-3,55,R,ugm-3,103,R,ugm-3
02-01-1992,10:00,0.8,R,mgm-3,34,R,ugm-3,52,R,ugm-3,103,R,ugm-3
02-01-1992,11:00,0.7,R,mgm-3,25,R,ugm-3,42,R,ugm-3,80,R,ugm-3
02-01-1992,12:00,0.7,R,mgm-3,23,R,ugm-3,46,R,ugm-3,80,R,ugm-3
02-01-1992,13:00,0.6,R,mgm-3,21,R,ugm-3,38,R,ugm-3,71,R,ugm-3
02-01-1992,14:00,0.6,R,mgm-3,21,R,ugm-3,40,R,ugm-3,73,R,ugm-3
02-01-1992,15:00,0.6,R,mgm-3,23,R,ugm-3,42,R,ugm-3,76,R,ugm-3
02-01-1992,16:00,0.7,R,mgm-3,23,R,ugm-3,44,R,ugm-3,78,R,ugm-3
02-01-1992,17:00,0.9,R,mgm-3,26,R,ugm-3,48,R,ugm-3,88,R,ugm-3
02-01-1992,18:00,0.9,R,mgm-3,28,R,ugm-3,50,R,ugm-3,92,R,ugm-3
02-01-1992,19:00,0.8,R,mgm-3,23,R,ugm-3,46,R,ugm-3,80,R,ugm-3
02-01-1992,20:00,0.6,R,mgm-3,16,R,ugm-3,36,R,ugm-3,61,R,ugm-3
02-01-1992,21:00,0.5,R,mgm-3,11,R,ugm-3,29,R,ugm-3,46,R,ugm-3
02-01-1992,22:00,0.3,R,mgm-3,9,R,ugm-3,23,R,ugm-3,36,R,ugm-3
02-01-1992,23:00,0.5,R,mgm-3,13,R,ugm-3,27,R,ugm-3,46,R,ugm-3
02-01-1992,24:00,0.3,R,mgm-3,9,R,ugm-3,19,R,ugm-3,32,R,ugm-3
03-01-1992,01:00,0.3,R,mgm-3,8,R,ugm-3,23,R,ugm-3,34,R,ugm-3
03-01-1992,02:00,0.2,R,mgm-3,6,R,ugm-3,17,R,ugm-3,27,R,ugm-3
03-01-1992,03:00,0.2,R,mgm-3,6,R,ugm-3,13,R,ugm-3,23,R,ugm-3
03-01-1992,04:00,0.2,R,mgm-3,5,R,ugm-3,13,R,ugm-3,21,R,ugm-3
03-01-1992,05:00,0.2,R,mgm-3,5,R,ugm-3,13,R,ugm-3,21,R,ugm-3
03-01-1992,06:00,0.2,R,mgm-3,5,R,ugm-3,17,R,ugm-3,25,R,ugm-3
03-01-1992,07:00,0.3,R,mgm-3,11,R,ugm-3,23,R,ugm-3,40,R,ugm-3
03-01-1992,08:00,0.6,R,mgm-3,18,R,ugm-3,34,R,ugm-3,61,R,ugm-3
03-01-1992,09:00,0.8,R,mgm-3,31,R,ugm-3,46,R,ugm-3,94,R,ugm-3
03-01-1992,10:00,0.8,R,mgm-3,26,R,ugm-3,42,R,ugm-3,82,R,ugm-3
03-01-1992,11:00,0.7,R,mgm-3,29,R,ugm-3,42,R,ugm-3,86,R,ugm-3
03-01-1992,12:00,0.7,R,mgm-3,21,R,ugm-3,38,R,ugm-3,71,R,ugm-3
03-01-1992,13:00,0.7,R,mgm-3,23,R,ugm-3,38,R,ugm-3,73,R,ugm-3
03-01-1992,14:00,0.6,R,mgm-3,15,R,ugm-3,32,R,ugm-3,55,R,ugm-3
03-01-1992,15:00,0.7,R,mgm-3,21,R,ugm-3,44,R,ugm-3,76,R,ugm-3
03-01-1992,16:00,0.7,R,mgm-3,18,R,ugm-3,42,R,ugm-3,69,R,ugm-3
03-01-1992,17:00,0.7,R,mgm-3,15,R,ugm-3,42,R,ugm-3,65,R,ugm-3
03-01-1992,18:00,0.8,R,mgm-3,18,R,ugm-3,46,R,ugm-3,73,R,ugm-3
03-01-1992,19:00,0.7,R,mgm-3,14,R,ugm-3,40,R,ugm-3,61,R,ugm-3
03-01-1992,20:00,0.6,R,mgm-3,14,R,ugm-3,32,R,ugm-3,53,R,ugm-3
03-01-1992,21:00,0.5,R,mgm-3,11,R,ugm-3,29,R,ugm-3,46,R,ugm-3
03-01-1992,22:00,0.3,R,mgm-3,8,R,ugm-3,21,R,ugm-3,32,R,ugm-3
03-01-1992,23:00,0.3,R,mgm-3,8,R,ugm-3,21,R,ugm-3,32,R,ugm-3
03-01-1992,24:00,0.3,R,mgm-3,9,R,ugm-3,21,R,ugm-3,34,R,ugm-3
04-01-1992,01:00,0.3,R,mgm-3,6,R,ugm-3,15,R,ugm-3,25,R,ugm-3
04-01-1992,02:00,0.2,R,mgm-3,5,R,ugm-3,15,R,ugm-3,23,R,ugm-3
04-01-1992,03:00,0.2,R,mgm-3,5,R,ugm-3,13,R,ugm-3,21,R,ugm-3
04-01-1992,04:00,0.2,R,mgm-3,5,R,ugm-3,15,R,ugm-3,23,R,ugm-3
04-01-1992,05:00,0.2,R,mgm-3,3,R,ugm-3,21,R,ugm-3,25,R,ugm-3
04-01-1992,06:00,0.2,R,mgm-3,5,R,ugm-3,25,R,ugm-3,32,R,ugm-3
04-01-1992,07:00,0.5,R,mgm-3,13,R,ugm-3,44,R,ugm-3,63,R,ugm-3
04-01-1992,08:00,0.8,R,mgm-3,51,R,ugm-3,71,R,ugm-3,149,R,ugm-3
04-01-1992,09:00,0.9,R,mgm-3,53,R,ugm-3,71,R,ugm-3,151,R,ugm-3
04-01-1992,10:00,1.2,R,mgm-3,64,R,ugm-3,67,R,ugm-3,164,R,ugm-3
04-01-1992,11:00,1.4,R,mgm-3,83,R,ugm-3,65,R,ugm-3,191,R,ugm-3
04-01-1992,12:00,1.6,R,mgm-3,101,R,ugm-3,67,R,ugm-3,222,R,ugm-3
04-01-1992,13:00,1.6,R,mgm-3,101,R,ugm-3,69,R,ugm-3,223,R,ugm-3
04-01-1992,14:00,1.7,R,mgm-3,98,R,ugm-3,67,R,ugm-3,216,R,ugm-3
04-01-1992,15:00,1.6,R,mgm-3,93,R,ugm-3,67,R,ugm-3,208,R,ugm-3
04-01-1992,16:00,1.6,R,mgm-3,101,R,ugm-3,69,R,ugm-3,223,R,ugm-3
04-01-1992,17:00,1.9,R,mgm-3,126,R,ugm-3,74,R,ugm-3,267,R,ugm-3
04-01-1992,18:00,1.7,R,mgm-3,110,R,ugm-3,69,R,ugm-3,237,R,ugm-3
04-01-1992,19:00,1.5,R,mgm-3,81,R,ugm-3,63,R,ugm-3,187,R,ugm-3
04-01-1992,20:00,1.3,R,mgm-3,64,R,ugm-3,59,R,ugm-3,157,R,ugm-3
04-01-1992,21:00,1.2,R,mgm-3,59,R,ugm-3,57,R,ugm-3,147,R,ugm-3
04-01-1992,22:00,1.4,R,mgm-3,71,R,ugm-3,61,R,ugm-3,170,R,ugm-3
04-01-1992,23:00,1.3,R,mgm-3,56,R,ugm-3,61,R,ugm-3,147,R,ugm-3
04-01-1992,24:00,1.3,R,mgm-3,55,R,ugm-3,57,R,ugm-3,141,R,ugm-3
05-01-1992,01:00,1.2,R,mgm-3,61,R,ugm-3,61,R,ugm-3,155,R,ugm-3
05-01-1992,02:00,0.6,R,mgm-3,15,R,ugm-3,48,R,ugm-3,71,R,ugm-3
05-01-1992,03:00,0.5,R,mgm-3,9,R,ugm-3,29,R,ugm-3,42,R,ugm-3
05-01-1992,04:00,0.3,R,mgm-3,6,R,ugm-3,23,R,ugm-3,32,R,ugm-3
05-01-1992,05:00,0.2,R,mgm-3,5,R,ugm-3,15,R,ugm-3,23,R,ugm-3
05-01-1992,06:00,0.2,R,mgm-3,5,R,ugm-3,17,R,ugm-3,25,R,ugm-3
05-01-1992,07:00,0.3,R,mgm-3,8,R,ugm-3,27,R,ugm-3,38,R,ugm-3
05-01-1992,08:00,0.3,R,mgm-3,10,R,ugm-3,32,R,ugm-3,48,R,ugm-3
05-01-1992,09:00,0.3,R,mgm-3,11,R,ugm-3,32,R,ugm-3,50,R,ugm-3
05-01-1992,10:00,0.6,R,mgm-3,14,R,ugm-3,38,R,ugm-3,59,R,ugm-3
05-01-1992,11:00,0.7,R,mgm-3,15,R,ugm-3,38,R,ugm-3,61,R,ugm-3
05-01-1992,12:00,0.7,R,mgm-3,18,R,ugm-3,40,R,ugm-3,67,R,ugm-3
05-01-1992,13:00,0.9,R,mgm-3,28,R,ugm-3,52,R,ugm-3,94,R,ugm-3
05-01-1992,14:00,0.9,R,mgm-3,24,R,ugm-3,50,R,ugm-3,86,R,ugm-3
05-01-1992,15:00,0.9,R,mgm-3,23,R,ugm-3,50,R,ugm-3,84,R,ugm-3
05-01-1992,16:00,0.9,R,mgm-3,28,R,ugm-3,55,R,ugm-3,97,R,ugm-3
05-01-1992,17:00,1.0,R,mgm-3,29,R,ugm-3,52,R,ugm-3,96,R,ugm-3
05-01-1992,18:00,1.2,R,mgm-3,34,R,ugm-3,57,R,ugm-3,109,R,ugm-3
05-01-1992,19:00,1.0,R,mgm-3,23,R,ugm-3,50,R,ugm-3,84,R,ugm-3
05-01-1992,20:00,0.9,R,mgm-3,23,R,ugm-3,46,R,ugm-3,80,R,ugm-3
05-01-1992,21:00,0.7,R,mgm-3,18,R,ugm-3,42,R,ugm-3,69,R,ugm-3
05-01-1992,22:00,0.6,R,mgm-3,18,R,ugm-3,40,R,ugm-3,67,R,ugm-3
05-01-1992,23:00,0.6,R,mgm-3,15,R,ugm-3,38,R,ugm-3,61,R,ugm-3
05-01-1992,24:00,0.5,R,mgm-3,11,R,ugm-3,34,R,ugm-3,52,R,ugm-3
06-01-1992,01:00,0.3,R,mgm-3,8,R,ugm-3,27,R,ugm-3,38,R,ugm-3
06-01-1992,02:00,0.3,R,mgm-3,6,R,ugm-3,23,R,ugm-3,32,R,ugm-3
06-01-1992,03:00,0.2,R,mgm-3,6,R,ugm-3,21,R,ugm-3,31,R,ugm-3
06-01-1992,04:00,0.2,R,mgm-3,6,R,ugm-3,21,R,ugm-3,31,R,ugm-3
06-01-1992,05:00,0.2,R,mgm-3,6,R,ugm-3,21,R,ugm-3,31,R,ugm-3
06-01-1992,06:00,0.3,R,mgm-3,10,R,ugm-3,32,R,ugm-3,48,R,ugm-3
06-01-1992,07:00,0.6,R,mgm-3,31,R,ugm-3,53,R,ugm-3,101,R,ugm-3
06-01-1992,08:00,1.3,R,mgm-3,61,R,ugm-3,69,R,ugm-3,162,R,ugm-3
06-01-1992,09:00,1.4,R,mgm-3,58,R,ugm-3,69,R,ugm-3,157,R,ugm-3
06-01-1992,10:00,1.0,R,mgm-3,45,R,ugm-3,63,R,ugm-3,132,R,ugm-3
06-01-1992,11:00,0.8,R,mgm-3,31,R,ugm-3,53,R,ugm-3,101,R,ugm-3
06-01-1992,12:00,0.7,R,mgm-3,26,R,ugm-3,50,R,ugm-3,90,R,ugm-3
06-01-1992,13:00,0.9,R,mgm-3,40,R,ugm-3,57,R,ugm-3,118,R,ugm-3
06-01-1992,14:00,0.9,R,mgm-3,41,R,ugm-3,57,R,ugm-3,120,R,ugm-3
06-01-1992,15:00,0.8,R,mgm-3,31,R,ugm-3,53,R,ugm-3,101,R,ugm-3
06-01-1992,16:00,0.9,R,mgm-3,35,R,ugm-3,57,R,ugm-3,111,R,ugm-3
06-01-1992,17:00,1.3,R,mgm-3,54,R,ugm-3,71,R,ugm-3,153,R,ugm-3
06-01-1992,18:00,2.3,R,mgm-3,116,R,ugm-3,74,R,ugm-3,252,R,ugm-3
06-01-1992,19:00,2.3,R,mgm-3,115,R,ugm-3,71,R,ugm-3,246,R,ugm-3
06-01-1992,20:00,1.9,R,mgm-3,99,R,ugm-3,67,R,ugm-3,218,R,ugm-3
06-01-1992,21:00,1.2,R,mgm-3,51,R,ugm-3,61,R,ugm-3,139,R,ugm-3
06-01-1992,22:00,0.9,R,mgm-3,38,R,ugm-3,55,R,ugm-3,113,R,ugm-3
06-01-1992,23:00,0.8,R,mgm-3,29,R,ugm-3,48,R,ugm-3,92,R,ugm-3
06-01-1992,24:00,0.6,R,mgm-3,15,R,ugm-3,34,R,ugm-3,57,R,ugm-3
07-01-1992,01:00,0.5,R,mgm-3,10,R,ugm-3,25,R,ugm-3,40,R,ugm-3
07-01-1992,02:00,0.5,R,mgm-3,10,R,ugm-3,31,R,ugm-3,46,R,ugm-3
07-01-1992,03:00,0.3,R,mgm-3,8,R,ugm-3,23,R,ugm-3,34,R,ugm-3
07-01-1992,04:00,0.3,R,mgm-3,5,R,ugm-3,23,R,ugm-3,31,R,ugm-3
07-01-1992,05:00,0.5,R,mgm-3,10,R,ugm-3,27,R,ugm-3,42,R,ugm-3
07-01-1992,06:00,0.6,R,mgm-3,14,R,ugm-3,34,R,ugm-3,55,R,ugm-3
07-01-1992,07:00,0.7,R,mgm-3,33,R,ugm-3,48,R,ugm-3,97,R,ugm-3
07-01-1992,08:00,2.0,R,mgm-3,118,R,ugm-3,67,R,ugm-3,246,R,ugm-3
07-01-1992,09:00,2.2,R,mgm-3,108,R,ugm-3,65,R,ugm-3,229,R,ugm-3
07-01-1992,10:00,1.6,R,mgm-3,76,R,ugm-3,65,R,ugm-3,181,R,ugm-3
07-01-1992,11:00,1.2,R,mgm-3,41,R,ugm-3,55,R,ugm-3,118,R,ugm-3
07-01-1992,12:00,1.3,R,mgm-3,64,R,ugm-3,59,R,ugm-3,157,R,ugm-3
07-01-1992,13:00,1.0,R,mgm-3,54,R,ugm-3,53,R,ugm-3,136,R,ugm-3
07-01-1992,14:00,1.2,R,mgm-3,58,R,ugm-3,55,R,ugm-3,143,R,ugm-3
07-01-1992,15:00,1.2,R,mgm-3,50,R,ugm-3,53,R,ugm-3,130,R,ugm-3
07-01-1992,16:00,1.4,R,mgm-3,54,R,ugm-3,59,R,ugm-3,141,R,ugm-3
07-01-1992,17:00,1.6,R,mgm-3,54,R,ugm-3,63,R,ugm-3,145,R,ugm-3
07-01-1992,18:00,1.4,R,mgm-3,46,R,ugm-3,61,R,ugm-3,132,R,ugm-3
07-01-1992,19:00,1.3,R,mgm-3,38,R,ugm-3,57,R,ugm-3,115,R,ugm-3
07-01-1992,20:00,1.0,R,mgm-3,31,R,ugm-3,50,R,ugm-3,97,R,ugm-3
07-01-1992,21:00,0.9,R,mgm-3,30,R,ugm-3,52,R,ugm-3,97,R,ugm-3
07-01-1992,22:00,0.9,R,mgm-3,24,R,ugm-3,46,R,ugm-3,82,R,ugm-3
07-01-1992,23:00,0.9,R,mgm-3,25,R,ugm-3,44,R,ugm-3,82,R,ugm-3
07-01-1992,24:00,0.9,R,mgm-3,23,R,ugm-3,42,R,ugm-3,76,R,ugm-3
08-01-1992,01:00,0.7,R,mgm-3,14,R,ugm-3,27,R,ugm-3,48,R,ugm-3
08-01-1992,02:00,0.6,R,mgm-3,8,R,ugm-3,21,R,ugm-3,32,R,ugm-3
08-01-1992,03:00,0.5,R,mgm-3,6,R,ugm-3,17,R,ugm-3,27,R,ugm-3
08-01-1992,04:00,0.3,R,mgm-3,8,R,ugm-3,15,R,ugm-3,27,R,ugm-3
08-01-1992,05:00,0.3,R,mgm-3,8,R,ugm-3,13,R,ugm-3,25,R,ugm-3
08-01-1992,06:00,0.3,R,mgm-3,8,R,ugm-3,13,R,ugm-3,25,R,ugm-3
08-01-1992,07:00,0.6,R,mgm-3,18,R,ugm-3,27,R,ugm-3,53,R,ugm-3
08-01-1992,08:00,0.8,R,mgm-3,19,R,ugm-3,34,R,ugm-3,63,R,ugm-3
08-01-1992,09:00,1.3,R,mgm-3,31,R,ugm-3,52,R,ugm-3,99,R,ugm-3
08-01-1992,10:00,1.2,R,mgm-3,36,R,ugm-3,50,R,ugm-3,105,R,ugm-3
08-01-1992,11:00,1.2,R,mgm-3,44,R,ugm-3,48,R,ugm-3,115,R,ugm-3
08-01-1992,12:00,1.0,R,mgm-3,41,R,ugm-3,44,R,ugm-3,107,R,ugm-3
08-01-1992,13:00,0.9,R,mgm-3,38,R,ugm-3,42,R,ugm-3,99,R,ugm-3
08-01-1992,14:00,1.0,R,mgm-3,39,R,ugm-3,38,R,ugm-3,97,R,ugm-3
08-01-1992,15:00,0.9,R,mgm-3,35,R,ugm-3,36,R,ugm-3,90,R,ugm-3
08-01-1992,16:00,1.2,R,mgm-3,34,R,ugm-3,40,R,ugm-3,92,R,ugm-3
08-01-1992,17:00,1.4,R,mgm-3,46,R,ugm-3,44,R,ugm-3,115,R,ugm-3
08-01-1992,18:00,1.4,R,mgm-3,40,R,ugm-3,46,R,ugm-3,107,R,ugm-3
08-01-1992,19:00,1.3,R,mgm-3,36,R,ugm-3,42,R,ugm-3,97,R,ugm-3
08-01-1992,20:00,1.3,R,mgm-3,35,R,ugm-3,42,R,ugm-3,96,R,ugm-3
08-01-1992,21:00,0.9,R,mgm-3,25,R,ugm-3,38,R,ugm-3,76,R,ugm-3
08-01-1992,22:00,0.9,R,mgm-3,24,R,ugm-3,40,R,ugm-3,76,R,ugm-3
08-01-1992,23:00,0.8,R,mgm-3,20,R,ugm-3,32,R,ugm-3,63,R,ugm-3
08-01-1992,24:00,0.9,R,mgm-3,25,R,ugm-3,38,R,ugm-3,76,R,ugm-3
09-01-1992,01:00,0.8,R,mgm-3,19,R,ugm-3,40,R,ugm-3,69,R,ugm-3
09-01-1992,02:00,0.8,R,mgm-3,21,R,ugm-3,44,R,ugm-3,76,R,ugm-3
09-01-1992,03:00,0.6,R,mgm-3,14,R,ugm-3,40,R,ugm-3,61,R,ugm-3
09-01-1992,04:00,0.5,R,mgm-3,8,R,ugm-3,23,R,ugm-3,34,R,ugm-3
09-01-1992,05:00,0.3,R,mgm-3,5,R,ugm-3,17,R,ugm-3,25,R,ugm-3
09-01-1992,06:00,0.5,R,mgm-3,9,R,ugm-3,25,R,ugm-3,38,R,ugm-3
09-01-1992,07:00,0.6,R,mgm-3,18,R,ugm-3,36,R,ugm-3,63,R,ugm-3
09-01-1992,08:00,1.4,R,mgm-3,78,R,ugm-3,67,R,ugm-3,185,R,ugm-3
09-01-1992,09:00,2.2,R,mgm-3,114,R,ugm-3,76,R,ugm-3,250,R,ugm-3
09-01-1992,10:00,2.1,R,mgm-3,139,R,ugm-3,96,R,ugm-3,308,R,ugm-3
09-01-1992,11:00,2.2,R,mgm-3,124,R,ugm-3,88,R,ugm-3,277,R,ugm-3
09-01-1992,12:00,1.0,R,mgm-3,34,R,ugm-3,59,R,ugm-3,111,R,ugm-3
09-01-1992,13:00,0.9,R,mgm-3,39,R,ugm-3,63,R,ugm-3,122,R,ugm-3
09-01-1992,14:00,0.9,R,mgm-3,24,R,ugm-3,55,R,ugm-3,92,R,ugm-3
09-01-1992,15:00,1.0,R,mgm-3,41,R,ugm-3,67,R,ugm-3,130,R,ugm-3
09-01-1992,16:00,1.0,R,mgm-3,44,R,ugm-3,67,R,ugm-3,134,R,ugm-3
09-01-1992,17:00,1.2,R,mgm-3,38,R,ugm-3,67,R,ugm-3,124,R,ugm-3
09-01-1992,18:00,1.0,R,mgm-3,25,R,ugm-3,61,R,ugm-3,99,R,ugm-3
09-01-1992,19:00,1.0,R,mgm-3,20,R,ugm-3,59,R,ugm-3,90,R,ugm-3
09-01-1992,20:00,0.9,R,mgm-3,16,R,ugm-3,59,R,ugm-3,84,R,ugm-3
09-01-1992,21:00,0.8,R,mgm-3,14,R,ugm-3,55,R,ugm-3,76,R,ugm-3
09-01-1992,22:00,0.7,R,mgm-3,13,R,ugm-3,55,R,ugm-3,74,R,ugm-3
09-01-1992,23:00,0.7,R,mgm-3,11,R,ugm-3,50,R,ugm-3,67,R,ugm-3
09-01-1992,24:00,0.6,R,mgm-3,8,R,ugm-3,44,R,ugm-3,55,R,ugm-3
10-01-1992,01:00,0.5,R,mgm-3,5,R,ugm-3,34,R,ugm-3,42,R,ugm-3
10-01-1992,02:00,0.3,R,mgm-3,4,R,ugm-3,29,R,ugm-3,34,R,ugm-3
10-01-1992,03:00,0.3,R,mgm-3,4,R,ugm-3,23,R,ugm-3,29,R,ugm-3
10-01-1992,04:00,0.3,R,mgm-3,3,R,ugm-3,21,R,ugm-3,25,R,ugm-3
10-01-1992,05:00,0.3,R,mgm-3,3,R,ugm-3,23,R,ugm-3,27,R,ugm-3
10-01-1992,06:00,0.3,R,mgm-3,5,R,ugm-3,27,R,ugm-3,34,R,ugm-3
10-01-1992,07:00,0.6,R,mgm-3,20,R,ugm-3,48,R,ugm-3,78,R,ugm-3
10-01-1992,08:00,0.9,R,mgm-3,43,R,ugm-3,65,R,ugm-3,130,R,ugm-3
10-01-1992,09:00,1.7,R,mgm-3,71,R,ugm-3,69,R,ugm-3,178,R,ugm-3
10-01-1992,10:00,1.9,R,mgm-3,95,R,ugm-3,73,R,ugm-3,218,R,ugm-3
10-01-1992,11:00,1.2,R,mgm-3,65,R,ugm-3,65,R,ugm-3,164,R,ugm-3
10-01-1992,12:00,1.0,R,mgm-3,66,R,ugm-3,67,R,ugm-3,168,R,ugm-3
10-01-1992,13:00,1.2,R,mgm-3,70,R,ugm-3,69,R,ugm-3,176,R,ugm-3
10-01-1992,14:00,1.0,R,mgm-3,63,R,ugm-3,65,R,ugm-3,160,R,ugm-3
10-01-1992,15:00,0.9,R,mgm-3,45,R,ugm-3,59,R,ugm-3,128,R,ugm-3
10-01-1992,16:00,1.3,R,mgm-3,48,R,ugm-3,65,R,ugm-3,138,R,ugm-3
10-01-1992,17:00,1.6,R,mgm-3,63,R,ugm-3,69,R,ugm-3,164,R,ugm-3
10-01-1992,18:00,1.6,R,mgm-3,70,R,ugm-3,71,R,ugm-3,178,R,ugm-3
10-01-1992,19:00,2.0,R,mgm-3,101,R,ugm-3,73,R,ugm-3,227,R,ugm-3
10-01-1992,20:00,1.6,R,mgm-3,78,R,ugm-3,69,R,ugm-3,187,R,ugm-3
10-01-1992,21:00,1.4,R,mgm-3,70,R,ugm-3,69,R,ugm-3,176,R,ugm-3
10-01-1992,22:00,1.2,R,mgm-3,55,R,ugm-3,69,R,ugm-3,153,R,ugm-3
10-01-1992,23:00,1.2,R,mgm-3,55,R,ugm-3,67,R,ugm-3,151,R,ugm-3
10-01-1992,24:00,1.0,R,mgm-3,36,R,ugm-3,63,R,ugm-3,118,R,ugm-3
11-01-1992,01:00,0.8,R,mgm-3,23,R,ugm-3,59,R,ugm-3,94,R,ugm-3
11-01-1992,02:00,0.7,R,mgm-3,13,R,ugm-3,57,R,ugm-3,76,R,ugm-3
11-01-1992,03:00,0.7,R,mgm-3,11,R,ugm-3,50,R,ugm-3,67,R,ugm-3
11-01-1992,04:00,0.6,R,mgm-3,10,R,ugm-3,46,R,ugm-3,61,R,ugm-3
11-01-1992,05:00,0.5,R,mgm-3,6,R,ugm-3,40,R,ugm-3,50,R,ugm-3
11-01-1992,06:00,0.5,R,mgm-3,6,R,ugm-3,40,R,ugm-3,50,R,ugm-3
11-01-1992,07:00,0.6,R,mgm-3,14,R,ugm-3,50,R,ugm-3,71,R,ugm-3
11-01-1992,08:00,0.9,R,mgm-3,78,R,ugm-3,86,R,ugm-3,204,R,ugm-3
11-01-1992,09:00,1.3,R,mgm-3,73,R,ugm-3,73,R,ugm-3,183,R,ugm-3
11-01-1992,10:00,1.6,R,mgm-3,83,R,ugm-3,69,R,ugm-3,195,R,ugm-3
11-01-1992,11:00,1.7,R,mgm-3,98,R,ugm-3,73,R,ugm-3,222,R,ugm-3
11-01-1992,12:00,2.2,R,mgm-3,133,R,ugm-3,86,R,ugm-3,288,R,ugm-3
11-01-1992,13:00,2.7,R,mgm-3,130,R,ugm-3,94,R,ugm-3,292,R,ugm-3
11-01-1992,14:00,2.6,R,mgm-3,85,R,ugm-3,82,R,ugm-3,212,R,ugm-3
11-01-1992,15:00,2.1,R,mgm-3,75,R,ugm-3,80,R,ugm-3,195,R,ugm-3
11-01-1992,16:00,2.2,R,mgm-3,116,R,ugm-3,90,R,ugm-3,267,R,ugm-3
11-01-1992,17:00,2.4,R,mgm-3,154,R,ugm-3,92,R,ugm-3,327,R,ugm-3
11-01-1992,18:00,3.5,R,mgm-3,233,R,ugm-3,90,R,ugm-3,445,R,ugm-3
11-01-1992,19:00,2.9,R,mgm-3,190,R,ugm-3,94,R,ugm-3,384,R,ugm-3
11-01-1992,20:00,2.7,R,mgm-3,190,R,ugm-3,90,R,ugm-3,380,R,ugm-3
11-01-1992,21:00,4.2,R,mgm-3,363,R,ugm-3,96,R,ugm-3,649,R,ugm-3
11-01-1992,22:00,5.9,R,mgm-3,516,R,ugm-3,107,R,ugm-3,896,R,ugm-3
11-01-1992,23:00,7.3,R,mgm-3,610,R,ugm-3,128,R,ugm-3,1060,R,ugm-3
11-01-1992,24:00,7.5,R,mgm-3,649,R,ugm-3,143,R,ugm-3,1135,R,ugm-3
12-01-1992,01:00,7.2,R,mgm-3,658,R,ugm-3,145,R,ugm-3,1150,R,ugm-3
12-01-1992,02:00,6.8,R,mgm-3,686,R,ugm-3,149,R,ugm-3,1198,R,ugm-3
12-01-1992,03:00,5.8,R,mgm-3,580,R,ugm-3,139,R,ugm-3,1026,R,ugm-3
12-01-1992,04:00,4.1,R,mgm-3,393,R,ugm-3,111,R,ugm-3,711,R,ugm-3
12-01-1992,05:00,2.9,R,mgm-3,274,R,ugm-3,92,R,ugm-3,510,R,ugm-3
12-01-1992,06:00,2.9,R,mgm-3,261,R,ugm-3,90,R,ugm-3,489,R,ugm-3
12-01-1992,07:00,2.7,R,mgm-3,231,R,ugm-3,86,R,ugm-3,439,R,ugm-3
12-01-1992,08:00,2.9,R,mgm-3,284,R,ugm-3,96,R,ugm-3,529,R,ugm-3
12-01-1992,09:00,4.1,R,mgm-3,436,R,ugm-3,107,R,ugm-3,774,R,ugm-3
12-01-1992,10:00,4.3,R,mgm-3,450,R,ugm-3,111,R,ugm-3,798,R,ugm-3
12-01-1992,11:00,5.0,R,mgm-3,458,R,ugm-3,117,R,ugm-3,816,R,ugm-3
12-01-1992,12:00,5.8,R,mgm-3,484,R,ugm-3,136,R,ugm-3,875,R,ugm-3
12-01-1992,13:00,6.1,R,mgm-3,401,R,ugm-3,153,R,ugm-3,766,R,ugm-3
12-01-1992,14:00,5.3,R,mgm-3,363,R,ugm-3,139,R,ugm-3,693,R,ugm-3
12-01-1992,15:00,5.8,R,mgm-3,366,R,ugm-3,147,R,ugm-3,707,R,ugm-3
12-01-1992,16:00,5.2,R,mgm-3,368,R,ugm-3,157,R,ugm-3,718,R,ugm-3
12-01-1992,17:00,5.6,R,mgm-3,408,R,ugm-3,155,R,ugm-3,777,R,ugm-3
12-01-1992,18:00,5.3,R,mgm-3,386,R,ugm-3,122,R,ugm-3,712,R,ugm-3
12-01-1992,19:00,3.9,R,mgm-3,268,R,ugm-3,88,R,ugm-3,497,R,ugm-3
12-01-1992,20:00,4.5,R,mgm-3,361,R,ugm-3,96,R,ugm-3,647,R,ugm-3
12-01-1992,21:00,4.5,R,mgm-3,394,R,ugm-3,99,R,ugm-3,701,R,ugm-3
12-01-1992,22:00,4.6,R,mgm-3,448,R,ugm-3,97,R,ugm-3,781,R,ugm-3
12-01-1992,23:00,4.1,R,mgm-3,398,R,ugm-3,80,R,ugm-3,688,R,ugm-3
12-01-1992,24:00,4.3,R,mgm-3,433,R,ugm-3,86,R,ugm-3,747,R,ugm-3
13-01-1992,01:00,4.1,R,mgm-3,421,R,ugm-3,84,R,ugm-3,728,R,ugm-3
13-01-1992,02:00,3.8,R,mgm-3,411,R,ugm-3,84,R,ugm-3,712,R,ugm-3
13-01-1992,03:00,3.1,R,mgm-3,314,R,ugm-3,73,R,ugm-3,552,R,ugm-3
13-01-1992,04:00,2.7,R,mgm-3,280,R,ugm-3,71,R,ugm-3,499,R,ugm-3
13-01-1992,05:00,0.9,R,mgm-3,34,R,ugm-3,61,R,ugm-3,113,R,ugm-3
13-01-1992,06:00,0.9,R,mgm-3,26,R,ugm-3,59,R,ugm-3,99,R,ugm-3
13-01-1992,07:00,1.0,R,mgm-3,55,R,ugm-3,71,R,ugm-3,155,R,ugm-3
13-01-1992,08:00,1.5,R,mgm-3,100,R,ugm-3,74,R,ugm-3,227,R,ugm-3
13-01-1992,09:00,3.6,R,mgm-3,205,R,ugm-3,80,R,ugm-3,393,R,ugm-3
13-01-1992,10:00,3.4,R,mgm-3,249,R,ugm-3,105,R,ugm-3,485,R,ugm-3
13-01-1992,11:00,2.6,R,mgm-3,189,R,ugm-3,105,R,ugm-3,393,R,ugm-3
13-01-1992,12:00,1.9,R,mgm-3,139,R,ugm-3,111,R,ugm-3,323,R,ugm-3
13-01-1992,13:00,1.6,R,mgm-3,115,R,ugm-3,92,R,ugm-3,267,R,ugm-3
13-01-1992,14:00,1.4,R,mgm-3,71,R,ugm-3,84,R,ugm-3,193,R,ugm-3
13-01-1992,15:00,1.2,R,mgm-3,64,R,ugm-3,76,R,ugm-3,174,R,ugm-3
13-01-1992,16:00,1.6,R,mgm-3,50,R,ugm-3,76,R,ugm-3,153,R,ugm-3
13-01-1992,17:00,2.0,R,mgm-3,61,R,ugm-3,82,R,ugm-3,176,R,ugm-3
13-01-1992,18:00,2.1,R,mgm-3,93,R,ugm-3,86,R,ugm-3,227,R,ugm-3
13-01-1992,19:00,2.8,R,mgm-3,123,R,ugm-3,84,R,ugm-3,271,R,ugm-3
13-01-1992,20:00,2.2,R,mgm-3,99,R,ugm-3,82,R,ugm-3,233,R,ugm-3
13-01-1992,21:00,4.4,R,mgm-3,313,R,ugm-3,97,R,ugm-3,575,R,ugm-3
13-01-1992,22:00,8.1,R,mgm-3,690,R,ugm-3,134,R,ugm-3,1188,R,ugm-3
13-01-1992,23:00,7.8,R,mgm-3,708,R,ugm-3,138,R,ugm-3,1219,R,ugm-3
13-01-1992,24:00,7.7,R,mgm-3,711,R,ugm-3,151,R,ugm-3,1238,R,ugm-3
14-01-1992,01:00,7.5,R,mgm-3,676,R,ugm-3,145,R,ugm-3,1178,R,ugm-3
14-01-1992,02:00,5.9,R,mgm-3,520,R,ugm-3,128,R,ugm-3,923,R,ugm-3
14-01-1992,03:00,5.2,R,mgm-3,560,R,ugm-3,134,R,ugm-3,989,R,ugm-3
14-01-1992,04:00,4.5,R,mgm-3,528,R,ugm-3,124,R,ugm-3,930,R,ugm-3
14-01-1992,05:00,3.2,R,mgm-3,374,R,ugm-3,97,R,ugm-3,669,R,ugm-3
14-01-1992,06:00,2.7,R,mgm-3,290,R,ugm-3,80,R,ugm-3,523,R,ugm-3
14-01-1992,07:00,2.7,R,mgm-3,306,R,ugm-3,80,R,ugm-3,548,R,ugm-3
14-01-1992,08:00,4.1,R,mgm-3,438,R,ugm-3,82,R,ugm-3,751,R,ugm-3
14-01-1992,09:00,4.2,R,mgm-3,391,R,ugm-3,88,R,ugm-3,686,R,ugm-3
14-01-1992,10:00,1.6,R,mgm-3,111,R,ugm-3,67,R,ugm-3,237,R,ugm-3
14-01-1992,11:00,1.6,R,mgm-3,148,R,ugm-3,74,R,ugm-3,300,R,ugm-3
14-01-1992,12:00,2.9,R,mgm-3,133,R,ugm-3,71,R,ugm-3,273,R,ugm-3
14-01-1992,13:00,1.0,R,mgm-3,105,R,ugm-3,65,R,ugm-3,225,R,ugm-3
14-01-1992,14:00,,,,,,,,,,,,
14-01-1992,15:00,1.7,R,mgm-3,133,R,ugm-3,63,R,ugm-3,265,R,ugm-3
14-01-1992,16:00,2.3,R,mgm-3,139,R,ugm-3,63,R,ugm-3,275,R,ugm-3
14-01-1992,17:00,1.6,R,mgm-3,90,R,ugm-3,61,R,ugm-3,199,R,ugm-3
14-01-1992,18:00,2.1,R,mgm-3,94,R,ugm-3,63,R,ugm-3,206,R,ugm-3
14-01-1992,19:00,2.3,R,mgm-3,101,R,ugm-3,63,R,ugm-3,218,R,ugm-3
14-01-1992,20:00,1.6,R,mgm-3,79,R,ugm-3,59,R,ugm-3,180,R,ugm-3
14-01-1992,21:00,1.5,R,mgm-3,71,R,ugm-3,59,R,ugm-3,168,R,ugm-3
14-01-1992,22:00,1.3,R,mgm-3,78,R,ugm-3,57,R,ugm-3,176,R,ugm-3
14-01-1992,23:00,1.0,R,mgm-3,48,R,ugm-3,59,R,ugm-3,132,R,ugm-3
14-01-1992,24:00,0.8,R,mgm-3,34,R,ugm-3,55,R,ugm-3,107,R,ugm-3
15-01-1992,01:00,0.7,R,mgm-3,20,R,ugm-3,55,R,ugm-3,86,R,ugm-3
15-01-1992,02:00,0.6,R,mgm-3,18,R,ugm-3,61,R,ugm-3,88,R,ugm-3
15-01-1992,03:00,0.6,R,mgm-3,25,R,ugm-3,59,R,ugm-3,97,R,ugm-3
15-01-1992,04:00,0.8,R,mgm-3,50,R,ugm-3,61,R,ugm-3,138,R,ugm-3
15-01-1992,05:00,0.8,R,mgm-3,46,R,ugm-3,63,R,ugm-3,134,R,ugm-3
15-01-1992,06:00,0.7,R,mgm-3,24,R,ugm-3,63,R,ugm-3,99,R,ugm-3
15-01-1992,07:00,0.7,R,mgm-3,54,R,ugm-3,71,R,ugm-3,153,R,ugm-3
15-01-1992,08:00,0.9,R,mgm-3,40,R,ugm-3,63,R,ugm-3,124,R,ugm-3
15-01-1992,09:00,1.7,R,mgm-3,93,R,ugm-3,73,R,ugm-3,214,R,ugm-3
15-01-1992,10:00,1.7,R,mgm-3,93,R,ugm-3,69,R,ugm-3,210,R,ugm-3
15-01-1992,11:00,2.2,R,mgm-3,99,R,ugm-3,82,R,ugm-3,233,R,ugm-3
15-01-1992,12:00,1.4,R,mgm-3,123,R,ugm-3,90,R,ugm-3,277,R,ugm-3
15-01-1992,13:00,1.9,R,mgm-3,140,R,ugm-3,82,R,ugm-3,296,R,ugm-3
15-01-1992,14:00,1.9,R,mgm-3,140,R,ugm-3,88,R,ugm-3,302,R,ugm-3
15-01-1992,15:00,2.1,R,mgm-3,168,R,ugm-3,90,R,ugm-3,346,R,ugm-3
15-01-1992,16:00,2.4,R,mgm-3,155,R,ugm-3,90,R,ugm-3,327,R,ugm-3
15-01-1992,17:00,2.4,R,mgm-3,163,R,ugm-3,86,R,ugm-3,334,R,ugm-3
15-01-1992,18:00,2.4,R,mgm-3,140,R,ugm-3,82,R,ugm-3,296,R,ugm-3
15-01-1992,19:00,3.0,R,mgm-3,193,R,ugm-3,82,R,ugm-3,376,R,ugm-3
15-01-1992,20:00,2.7,R,mgm-3,183,R,ugm-3,80,R,ugm-3,359,R,ugm-3
15-01-1992,21:00,2.4,R,mgm-3,191,R,ugm-3,76,R,ugm-3,369,R,ugm-3
15-01-1992,22:00,2.0,R,mgm-3,184,R,ugm-3,80,R,ugm-3,361,R,ugm-3
15-01-1992,23:00,1.7,R,mgm-3,153,R,ugm-3,80,R,ugm-3,313,R,ugm-3
15-01-1992,24:00,1.5,R,mgm-3,113,R,ugm-3,76,R,ugm-3,248,R,ugm-3
16-01-1992,01:00,1.2,R,mgm-3,88,R,ugm-3,69,R,ugm-3,202,R,ugm-3
16-01-1992,02:00,0.8,R,mgm-3,51,R,ugm-3,69,R,ugm-3,147,R,ugm-3
16-01-1992,03:00,0.7,R,mgm-3,28,R,ugm-3,59,R,ugm-3,101,R,ugm-3
16-01-1992,04:00,0.6,R,mgm-3,14,R,ugm-3,50,R,ugm-3,71,R,ugm-3
16-01-1992,05:00,0.7,R,mgm-3,35,R,ugm-3,59,R,ugm-3,113,R,ugm-3
16-01-1992,06:00,0.8,R,mgm-3,36,R,ugm-3,53,R,ugm-3,109,R,ugm-3
16-01-1992,07:00,0.9,R,mgm-3,93,R,ugm-3,53,R,ugm-3,195,R,ugm-3
16-01-1992,08:00,1.9,R,mgm-3,168,R,ugm-3,61,R,ugm-3,317,R,ugm-3
16-01-1992,09:00,3.0,R,mgm-3,235,R,ugm-3,61,R,ugm-3,420,R,ugm-3
16-01-1992,10:00,3.5,R,mgm-3,319,R,ugm-3,73,R,ugm-3,560,R,ugm-3
16-01-1992,11:00,2.8,R,mgm-3,303,R,ugm-3,71,R,ugm-3,533,R,ugm-3
16-01-1992,12:00,2.2,R,mgm-3,226,R,ugm-3,67,R,ugm-3,413,R,ugm-3
16-01-1992,13:00,1.9,R,mgm-3,184,R,ugm-3,74,R,ugm-3,355,R,ugm-3
16-01-1992,14:00,1.6,R,mgm-3,131,R,ugm-3,65,R,ugm-3,265,R,ugm-3
16-01-1992,15:00,1.7,R,mgm-3,93,R,ugm-3,61,R,ugm-3,202,R,ugm-3
16-01-1992,16:00,1.9,R,mgm-3,125,R,ugm-3,71,R,ugm-3,262,R,ugm-3
16-01-1992,17:00,2.1,R,mgm-3,131,R,ugm-3,63,R,ugm-3,264,R,ugm-3
16-01-1992,18:00,3.1,R,mgm-3,186,R,ugm-3,63,R,ugm-3,348,R,ugm-3